Wetbulb
34.20 33.94 33.60 33.71 33.29 32.64 32.08 30.88 27.29 24.80 25.85 26.93 27.98 32.67 32.47 32.98 34.48 35.17 33.54 38.31 40.59 41.52 41.95 41.77 41.38 41.53 42.02 42.31 42.70 42.76 43.08 42.98 43.20 44.10 44.61 45.09 45.60 46.27
34.70 33.00 32.52 32.50 31.72 31.29 30.62 30.31 29.09 26.25 24.50 28.54 29.83 29.64 31.36 34.50 35.73 35.28 34.07 38.57 39.45 40.48 40.44 40.14 40.11 40.36 40.63 41.06 41.35 41.73 41.99 42.66 43.09 43.85 44.75 44.94 45.28 45.56
33.43 32.87 32.36 32.07 30.41 29.52 29.28 29.26 28.30 27.33 25.60 28.33 30.33 31.31 29.29 29.94 32.80 32.51 34.27 33.07 34.51 38.96 39.31 39.53 39.37 39.64 40.11 40.44 40.59 41.08 41.32 41.86 42.25 42.91 43.76 44.17 44.66 44.72
32.46 31.80 31.34 33.90 29.60 29.16 28.21 27.71 27.41 27.67 27.33 26.19 29.28 29.50 28.79 29.88 31.24 31.13 33.89 35.33 33.46 36.60 38.52 38.51 38.67 38.80 39.09 39.46 39.73 39.96 40.16 40.53 40.77 41.24 41.87 42.57 42.84 43.27
32.22 31.19 30.58 29.90 28.32 27.76 27.49 27.04 27.95 30.82 28.46 27.47 26.99 29.30 29.46 30.40 30.47 32.48 31.39 30.78 32.47 35.45 36.62 37.07 37.54 38.19 38.55 38.72 39.12 39.40 39.26 39.20 39.39 39.55 39.88 40.42 41.05 41.79
32.93 31.72 30.62 29.90 28.60 27.18 28.33 27.59 29.25 27.19 27.66 26.97 26.78 27.27 28.43 30.20 30.19 27.20 26.77 27.54 28.14 31.41 33.22 34.76 36.72 36.61 37.09 37.47 37.33 36.90 36.92 37.51 38.24 38.83 39.07 38.98 39.26 40.04
31.03 31.47 31.17 32.75 35.70 34.41 31.47 28.18 28.25 26.63 26.70 26.89 27.44 27.06 28.48 26.27 25.41 27.17 25.28 26.52 27.26 28.62 28.74 28.80 29.21 29.54 30.03 33.44 34.00 35.20 35.90 37.29 38.00 38.41 38.95 39.33 39.39 39.77
28.79 29.43 30.06 33.44 32.46 35.40 35.39 35.26 33.52 29.53 26.73 26.33 28.50 25.05 25.29 25.88 24.53 25.23 24.99 23.94 23.42 29.81 24.85 26.22 28.22 27.14 28.52 29.75 34.17 35.66 36.24 36.83 37.50 37.83 38.39 38.97 39.21 39.66
28.34 28.43 29.26 32.16 32.06 29.12 32.23 34.12 33.07 34.03 33.88 29.93 26.00 25.76 25.59 26.22 25.61 25.16 26.27 27.28 26.26 27.04 26.22 23.97 27.44 26.36 28.63 30.03 33.65 34.82 35.88 36.05 36.77 37.50 37.85 38.42 39.03 39.24
28.40 28.25 27.42 27.40 28.65 30.78 29.25 25.90 27.21 28.27 29.26 29.68 28.40 27.90 27.85 29.71 30.57 30.41 28.51 26.18 26.48 27.07 26.86 23.15 26.65 25.29 27.26 28.06 33.30 33.91 34.59 35.60 36.64 37.44 37.90 37.95 38.16 38.71
28.38 28.22 28.55 27.62 32.90 34.66 29.61 24.61 26.56 26.62 31.28 32.79 33.06 33.79 34.22 33.86 32.64 28.69 25.07 23.35 22.77 24.37 26.87 24.76 24.37 24.23 25.33 25.66 27.48 32.69 33.83 34.92 34.71 35.73 36.40 37.40 37.64 38.38
26.80 27.64 32.57 31.38 33.92 34.18 29.82 27.88 24.84 25.05 25.74 27.02 27.76 27.77 28.77 27.12 31.55 27.23 26.10 22.88 22.38 21.42 24.71 23.75 23.66 24.18 20.77 24.79 25.12 27.01 27.07 31.44 33.25 34.39 35.36 36.22 36.77 34.35
26.06 25.64 26.84 32.86 33.42 33.83 33.68 26.89 26.19 29.13 29.23 26.13 24.61 24.83 25.24 25.31 25.81 26.17 26.24 25.55 23.53 22.17 25.99 26.06 24.00 23.53 23.27 21.50 23.93 25.86 26.58 27.05 27.44 29.08 32.87 34.63 35.87 36.30
25.35 25.77 26.19 32.59 32.75 32.42 30.74 30.96 31.50 31.26 24.58 23.88 23.49 23.17 23.27 23.41 24.45 25.19 25.61 25.19 25.63 25.18 26.74 27.46 24.90 24.19 22.92 21.63 20.95 24.97 26.50 27.19 27.46 27.77 29.23 32.88 35.26 36.57
27.38 30.12 31.75 31.66 31.00 28.60 29.54 30.57 29.93 23.19 23.32 22.47 22.82 22.68 23.09 23.96 24.33 23.96 24.33 24.83 24.99 26.01 27.16 26.54 25.67 25.46 24.87 22.96 22.52 23.92 25.25 26.65 28.81 28.13 29.56 30.54 31.37 33.09
29.33 24.95 28.90 29.00 29.11 27.72 25.80 24.77 23.46 23.53 23.75 22.92 22.51 23.61 24.50 23.82 22.49 23.28 22.84 23.13 22.59 22.89 26.36 27.22 26.54 26.54 24.93 25.01 25.27 24.50 26.22 25.04 28.93 29.47 30.29 31.15 31.84 32.89
28.80 24.13 22.46 21.37 20.51 21.74 22.08 22.42 22.91 23.04 22.43 22.53 22.58 22.81 22.69 22.48 22.44 23.17 23.08 23.30 22.00 21.50 22.70 25.01 26.63 26.58 26.45 25.86 24.23 25.42 26.33 27.31 29.13 28.91 28.61 28.95 30.17 31.54
24.72 20.36 18.86 18.90 19.71 20.54 20.69 20.94 21.75 22.41 21.72 22.32 22.00 21.81 21.38 20.96 21.27 22.81 23.69 21.96 21.10 21.55 22.46 23.60 23.85 24.04 25.06 27.47 31.13 27.27 27.96 27.56 28.19 28.92 29.17 27.75 28.31 31.37
19.88 18.27 17.81 18.59 19.28 19.68 19.54 20.07 19.74 20.90 22.00 21.54 21.17 20.70 20.83 21.50 22.07 20.34 21.14 21.48 21.09 21.51 21.95 23.67 24.84 24.59 22.07 21.02 27.03 33.42 28.28 28.42 28.48 27.78 29.17 29.14 28.69 30.49
20.36 19.13 17.29 18.43 19.09 18.91 19.31 19.91 20.48 20.70 20.65 20.37 20.53 21.76 21.25 21.03 20.34 20.50 21.04 20.95 21.54 22.91 24.36 25.31 25.21 25.91 25.22 25.13 25.45 28.20 32.43 29.35 29.17 28.14 28.34 30.70 32.07 34.65
19.68 18.39 18.33 18.47 18.67 19.06 19.54 19.96 20.47 20.21 21.56 21.32 20.04 20.52 21.01 21.21 20.28 20.79 21.37 24.97 25.55 23.48 22.73 24.38 27.19 33.01 30.15 29.60 26.47 26.30 29.25 32.88 32.51 30.40 30.50 29.44 28.99 30.51
19.45 18.14 18.66 18.19 18.47 18.97 19.39 19.88 19.63 19.72 19.39 19.30 19.65 20.40 20.68 21.06 21.05 21.74 22.15 21.91 22.51 24.33 25.38 27.72 29.78 29.06 28.42 26.91 25.31 25.95 27.71 29.92 32.29 33.65 34.20 33.25 30.44 27.82
17.09 18.06 17.98 17.96 18.58 18.78 19.28 19.19 18.87 18.75 19.01 19.38 19.43 19.82 20.66 20.60 21.62 22.07 22.61 23.48 24.68 26.04 27.96 27.02 28.19 28.70 27.51 27.56 27.94 27.17 27.30 27.22 28.28 28.73 30.66 34.99 35.52 35.37
MSLP
1019.86 1020.10 1020.38 1020.48 1020.63 1020.76 1020.92 1021.14 1021.32 1020.89 1019.92 1019.23 1019.16 1018.61 1018.47 1018.04 1017.72 1017.31 1017.05 1016.72 1016.24 1015.66 1015.11 1014.68 1014.26 1013.79 1013.21 1012.72 1012.22 1011.89 1011.57 1011.42 1011.13 1010.70 1010.43 1010.01 1009.59 1009.22
1019.70 1019.98 1020.25 1020.42 1020.59 1020.74 1020.90 1020.97 1021.06 1021.06 1020.28 1019.54 1019.24 1018.87 1018.40 1017.82 1017.46 1017.02 1016.60 1016.08 1015.64 1015.21 1014.63 1014.13 1013.64 1013.00 1012.49 1011.96 1011.51 1011.22 1010.82 1010.24 1009.99 1009.65 1009.16 1008.81 1008.55 1008.24
1019.58 1019.81 1020.05 1020.27 1020.53 1020.72 1020.76 1020.76 1020.79 1020.70 1020.18 1019.23 1019.06 1018.62 1018.14 1017.63 1017.08 1016.68 1016.20 1015.68 1015.14 1014.57 1013.99 1013.39 1012.77 1012.24 1011.73 1011.13 1010.71 1010.10 1009.66 1009.30 1008.96 1008.60 1008.11 1007.77 1007.53 1007.30
1019.53 1019.71 1019.92 1020.07 1020.38 1020.45 1020.49 1020.56 1020.59 1020.42 1020.17 1019.17 1018.82 1018.43 1018.05 1017.43 1016.85 1016.27 1015.67 1014.96 1014.42 1013.77 1013.17 1012.69 1012.09 1011.61 1011.08 1010.44 1009.79 1009.23 1008.71 1008.22 1007.82 1007.47 1007.20 1006.84 1006.34 1006.10
1019.37 1019.49 1019.68 1019.85 1020.13 1020.16 1020.30 1020.48 1020.39 1020.04 1019.80 1019.32 1018.58 1018.29 1017.76 1017.26 1016.43 1015.81 1015.13 1014.40 1013.85 1013.26 1012.78 1012.26 1011.56 1010.97 1010.19 1009.52 1008.80 1008.11 1007.52 1007.16 1006.74 1006.33 1006.06 1005.79 1005.47 1005.15
1019.19 1019.20 1019.39 1019.54 1019.68 1019.86 1019.97 1019.96 1019.68 1019.57 1019.33 1018.98 1018.45 1017.97 1017.45 1016.62 1016.11 1015.40 1014.44 1014.03 1013.42 1012.85 1012.40 1011.60 1010.86 1010.15 1009.50 1008.76 1008.15 1007.56 1007.03 1006.46 1005.89 1005.32 1004.87 1004.68 1004.45 1004.04
1019.18 1019.11 1019.15 1019.24 1019.25 1019.16 1019.02 1019.14 1019.10 1018.93 1018.73 1018.50 1017.92 1017.20 1016.69 1016.24 1015.79 1015.11 1014.33 1013.53 1012.79 1012.26 1011.55 1010.92 1010.24 1009.57 1008.92 1008.11 1007.45 1006.73 1006.10 1005.30 1004.61 1004.17 1003.71 1003.32 1002.99 1002.70
1019.29 1019.04 1019.03 1019.02 1018.90 1018.77 1018.69 1018.61 1018.53 1018.24 1018.14 1017.80 1017.23 1016.82 1016.05 1015.66 1015.20 1014.79 1013.98 1013.22 1011.66 1011.46 1011.03 1010.17 1009.71 1008.52 1007.98 1007.33 1006.50 1005.59 1004.83 1004.15 1003.49 1003.00 1002.66 1002.20 1001.84 1001.46
1019.15 1018.99 1018.90 1018.75 1018.64 1018.47 1018.36 1018.13 1018.06 1017.90 1017.59 1017.14 1016.64 1016.19 1015.39 1015.04 1014.61 1013.93 1013.22 1012.55 1011.61 1010.84 1010.73 1009.69 1008.48 1007.51 1006.98 1006.16 1005.51 1004.62 1003.74 1003.20 1002.55 1002.00 1001.44 1001.07 1000.63 1000.20
1019.02 1018.83 1018.71 1018.48 1018.21 1017.91 1017.66 1017.58 1017.44 1017.19 1016.94 1016.49 1015.87 1015.20 1014.71 1014.04 1013.66 1012.99 1012.33 1011.78 1010.82 1010.14 1009.98 1008.88 1007.76 1006.70 1005.72 1005.22 1004.36 1003.64 1002.86 1002.14 1001.36 1000.81 1000.34 1000.01 999.45 998.89
1018.98 1018.75 1018.42 1018.10 1017.80 1017.34 1017.09 1017.11 1016.91 1016.52 1016.18 1015.66 1015.06 1014.50 1013.86 1013.29 1012.71 1012.26 1011.75 1011.31 1010.07 1009.31 1008.97 1008.47 1007.33 1006.41 1005.15 1003.94 1003.21 1002.57 1001.97 1001.27 1000.93 1000.13 999.62 998.88 998.34 997.62
1018.95 1018.61 1018.28 1017.95 1017.47 1017.12 1016.83 1016.60 1016.35 1016.05 1015.51 1014.98 1014.53 1014.01 1013.48 1013.02 1012.34 1012.09 1011.54 1011.14 1010.33 1008.72 1008.02 1008.02 1007.06 1006.69 1004.32 1002.91 1002.25 1001.98 1001.20 1000.66 1000.07 999.30 998.50 997.82 997.24 996.90
1018.78 1018.43 1018.00 1017.61 1017.16 1016.73 1016.36 1016.19 1015.93 1015.23 1014.84 1014.63 1014.17 1013.59 1012.99 1012.44 1011.96 1011.55 1011.24 1010.89 1009.84 1008.77 1007.47 1007.47 1006.43 1005.88 1005.44 1002.93 1001.48 1001.05 1000.58 999.43 999.03 998.32 997.68 996.80 996.06 995.72
1018.39 1017.99 1017.65 1017.20 1016.76 1016.38 1015.99 1015.76 1015.27 1014.76 1014.71 1014.42 1013.87 1013.21 1012.64 1012.08 1011.46 1010.93 1010.43 1009.98 1009.28 1008.27 1006.96 1006.77 1005.68 1005.13 1004.12 1002.84 1001.01 999.78 999.17 998.53 998.10 997.11 996.41 995.61 994.88 994.17
1018.06 1017.67 1017.30 1016.90 1016.59 1016.12 1015.81 1015.33 1015.08 1014.99 1014.72 1014.26 1013.62 1012.86 1012.30 1011.57 1010.91 1010.27 1009.52 1008.78 1007.99 1006.96 1006.09 1005.46 1004.96 1004.04 1003.39 1002.15 1000.66 999.36 998.09 997.23 996.81 996.11 995.36 994.61 993.59 992.89
1017.71 1017.35 1017.09 1016.79 1016.35 1016.01 1015.72 1015.42 1015.23 1014.98 1014.54 1014.02 1013.32 1012.48 1011.74 1011.08 1010.39 1009.74 1008.94 1007.98 1007.11 1005.53 1004.71 1004.17 1003.55 1002.97 1001.93 1001.06 1000.10 998.46 997.54 996.82 995.58 994.65 993.95 993.13 992.10 991.47
1017.23 1017.24 1017.16 1016.85 1016.56 1016.11 1015.70 1015.39 1015.12 1014.70 1014.20 1013.71 1013.04 1012.22 1011.39 1010.68 1009.81 1009.06 1008.35 1007.30 1006.42 1005.04 1003.71 1002.72 1002.11 1001.55 1000.77 1000.11 998.84 997.35 996.33 995.47 994.53 993.69 993.16 992.07 990.53 990.02
1017.28 1017.37 1017.27 1017.02 1016.77 1016.25 1015.73 1015.29 1014.92 1014.43 1013.99 1013.40 1012.70 1011.97 1011.13 1010.27 1009.33 1008.28 1007.56 1006.75 1005.63 1004.44 1003.38 1002.09 1001.16 1000.07 998.84 997.89 997.36 996.12 995.12 994.27 993.29 992.59 991.81 990.79 989.08 988.03
1017.57 1017.42 1017.34 1017.08 1016.76 1016.27 1015.78 1015.30 1014.69 1014.16 1013.65 1013.04 1012.33 1011.47 1010.65 1009.74 1008.80 1007.81 1006.82 1006.00 1004.82 1003.84 1002.64 1001.52 1000.46 999.52 997.97 996.16 995.12 994.79 994.14 993.05 992.21 991.14 990.27 989.43 988.21 986.80
1017.63 1017.46 1017.25 1016.98 1016.65 1016.16 1015.63 1015.11 1014.50 1013.80 1013.14 1012.49 1011.68 1010.86 1010.09 1009.28 1008.16 1007.20 1006.25 1005.29 1004.12 1002.81 1001.55 1000.45 999.71 998.70 997.65 996.28 994.59 992.86 992.79 992.13 991.24 990.01 988.79 987.88 986.87 985.75
1017.55 1017.36 1017.11 1016.84 1016.47 1015.99 1015.43 1014.90 1014.26 1013.45 1012.59 1011.95 1011.22 1010.39 1009.44 1008.65 1007.56 1006.62 1005.61 1004.44 1003.32 1002.21 1000.94 999.73 998.71 997.80 996.95 995.81 994.45 992.75 991.30 990.76 990.17 989.23 988.08 986.93 985.54 984.44
1017.52 1017.32 1016.94 1016.66 1016.28 1015.76 1015.18 1014.57 1013.77 1012.97 1012.25 1011.54 1010.67 1009.82 1008.92 1008.09 1007.01 1005.94 1004.90 1003.85 1002.63 1001.49 1000.26 999.17 998.09 997.17 996.26 995.38 994.13 992.76 991.20 989.83 988.91 988.06 987.24 986.63 985.52 984.20
1017.60 1017.23 1016.86 1016.45 1015.94 1015.40 1014.85 1014.16 1013.40 1012.55 1011.81 1011.05 1010.23 1009.29 1008.41 1007.37 1006.35 1005.33 1004.22 1003.07 1001.92 1000.73 999.76 998.67 997.65 996.75 995.89 994.97 993.84 992.39 991.09 989.78 988.72 987.43 986.27 985.22 984.45 983.76
Wind_Speed
2 1 1 1 2 2 2 1 3 7 9 2 4 8 5 6 8 9 7 16 25 27 27 29 30 30 30 30 29 30 29 29 29 30 29 30 30 30
1 1 1 1 2 3 3 2 2 3 8 5 6 5 6 7 11 14 11 22 21 27 29 29 30 29 29 29 29 29 30 31 29 29 31 30 30 30
1 1 2 2 2 2 3 3 3 3 8 9 7 7 5 8 11 8 11 8 11 24 28 28 28 27 31 30 30 31 31 31 30 30 31 30 30 30
2 2 3 2 4 4 3 5 3 4 6 13 9 7 7 8 11 11 11 10 12 21 24 28 29 29 31 30 31 30 30 29 30 29 29 30 30 31
3 2 3 3 4 3 3 3 3 6 5 8 10 8 9 9 10 9 11 12 8 20 23 26 30 30 30 31 31 31 30 30 30 29 29 29 30 31
4 3 3 4 5 3 4 6 6 4 6 7 9 10 9 10 7 9 12 5 10 10 17 24 25 29 29 29 31 30 29 29 29 29 27 27 29 30
6 4 3 5 12 11 6 4 5 4 6 7 10 11 8 10 10 8 10 11 12 11 9 11 9 11 13 22 23 28 28 29 29 28 29 29 28 29
5 5 5 8 9 13 15 17 15 9 9 9 8 12 13 10 4 9 12 12 13 7 4 14 10 13 11 11 24 29 31 30 28 29 30 29 29 29
6 5 5 4 9 5 10 15 14 17 20 15 14 12 13 11 9 12 13 12 11 12 10 13 11 14 11 13 26 29 31 31 28 27 26 26 27 28
6 6 5 6 6 10 6 5 6 6 9 9 12 12 10 13 14 12 12 12 12 11 8 13 12 15 13 11 27 31 29 26 24 25 27 29 29 29
5 6 6 5 13 18 8 6 7 7 11 21 22 25 27 27 21 11 9 10 13 12 8 11 11 12 14 14 12 21 23 25 29 27 28 28 29 29
5 6 12 13 18 19 12 9 9 10 10 10 10 14 15 12 21 11 7 9 12 13 6 6 11 8 10 7 7 10 10 20 26 28 28 28 28 14
4 4 4 15 20 22 22 7 10 14 12 8 9 9 9 9 8 9 9 9 11 13 15 11 10 11 8 13 9 11 12 13 10 15 24 27 27 23
5 4 5 19 22 22 16 19 20 17 5 7 8 9 9 9 9 10 12 12 12 17 17 14 11 12 12 14 17 11 12 12 11 11 11 18 26 28
5 13 21 21 21 14 15 18 16 5 6 8 9 9 8 10 11 11 12 13 14 15 13 15 12 13 11 13 15 15 16 12 12 10 9 12 13 12
11 6 13 17 16 12 10 7 4 6 8 9 9 10 11 10 11 10 10 11 11 12 12 12 13 13 12 12 13 15 14 12 13 13 12 12 14 12
13 4 6 5 5 6 5 5 6 7 8 8 9 10 11 11 11 10 10 10 11 12 13 12 12 12 12 15 14 14 14 13 12 12 12 13 15 13
6 3 4 3 5 7 7 8 7 11 8 9 10 10 10 11 11 11 10 10 11 12 12 12 12 12 11 10 18 13 12 12 12 13 14 13 14 12
3 3 3 4 6 6 6 7 10 9 10 9 10 11 11 10 15 11 11 10 11 11 12 12 11 11 14 15 10 13 10 11 12 12 11 11 14 13
4 5 4 4 6 6 7 8 9 10 10 10 10 10 10 10 11 11 11 12 12 12 12 11 10 10 11 13 16 17 17 10 10 12 13 11 13 24
5 5 3 5 6 7 8 8 10 10 11 10 10 10 10 10 11 11 12 21 21 12 13 12 12 24 11 12 9 13 12 17 16 13 12 12 11 9
5 5 5 5 7 8 8 9 10 11 10 10 10 10 10 10 11 12 11 12 12 12 13 10 11 10 10 9 12 15 13 12 16 18 20 18 8 7
4 5 6 7 7 8 8 9 10 11 10 10 10 11 11 11 11 11 12 12 12 11 10 11 10 9 10 8 15 12 16 15 11 12 12 19 18 16
Wind_Direction
184 189 234 283 339 339 333 271 233 300 303 287 310 335 321 320 310 313 303 303 304 302 305 304 304 301 299 298 299 296 295 290 285 284 279 278 279 277
141 94 312 316 338 324 295 296 285 259 287 314 299 295 299 302 304 304 292 297 296 299 301 300 303 298 299 296 297 295 289 286 288 286 283 282 280 277
325 267 292 324 296 300 300 281 274 273 287 295 293 291 289 295 294 286 294 281 290 292 298 298 299 300 299 298 295 291 294 291 288 285 282 283 282 281
285 317 304 333 319 299 286 290 291 286 286 298 307 307 303 300 301 299 298 287 288 290 294 303 302 300 298 297 294 291 285 285 284 285 286 281 282 282
287 281 276 287 287 285 298 313 299 292 286 299 303 302 299 298 291 287 282 294 286 302 301 300 298 297 296 298 296 294 297 298 292 288 285 283 284 282
309 296 279 266 266 270 274 263 269 278 285 285 292 295 290 291 287 299 297 296 300 297 294 289 291 296 294 297 297 295 293 292 290 287 284 285 282 277
319 301 296 296 300 293 290 258 265 269 284 288 289 294 295 303 298 293 298 302 293 293 285 287 291 289 287 290 289 292 290 286 288 287 284 281 279 278
307 306 302 295 296 311 310 308 303 307 312 298 299 300 296 294 289 296 293 297 296 279 290 293 290 286 284 283 287 292 296 291 289 290 287 283 282 279
285 286 287 289 305 282 288 292 298 299 305 305 297 290 295 297 289 287 286 283 287 293 293 288 294 286 286 285 292 290 296 297 291 285 283 279 276 276
293 286 279 286 281 302 275 275 269 278 282 284 291 294 288 294 293 289 292 289 287 289 281 282 295 291 296 287 291 294 294 292 289 290 298 291 284 281
313 326 313 304 313 306 318 288 287 289 297 303 301 303 305 306 304 305 297 297 293 293 295 286 292 293 295 288 279 281 290 295 298 292 292 289 289 284
323 309 312 317 312 317 310 307 306 306 298 293 303 301 296 285 302 299 303 303 296 295 290 302 296 304 299 273 279 295 281 286 292 292 290 292 292 286
277 285 277 310 313 314 315 320 302 300 311 307 296 293 298 296 297 291 284 280 291 285 287 296 291 287 269 297 285 290 289 289 285 286 287 287 288 284
291 286 286 312 321 316 319 313 309 319 321 299 296 298 301 299 295 293 289 280 269 269 283 279 279 283 285 285 292 295 289 287 283 281 284 283 285 284
310 311 322 319 317 315 310 319 327 319 304 301 301 299 298 296 298 295 290 282 276 275 275 275 270 277 272 277 284 288 292 296 284 275 278 280 279 281
296 301 319 319 313 323 326 317 311 309 309 309 302 300 300 300 297 295 292 295 290 291 284 272 270 269 276 271 278 283 286 283 288 285 284 285 283 277
326 329 319 309 328 319 316 315 315 311 309 305 299 300 298 298 294 298 289 291 287 296 299 300 287 269 264 269 276 276 282 281 278 282 285 284 282 277
320 311 303 307 312 317 319 318 310 310 304 301 298 294 295 296 296 296 297 292 290 295 295 296 299 296 287 262 248 272 278 277 282 284 286 280 283 287
338 312 295 303 307 309 311 309 306 304 303 295 294 293 291 290 304 297 296 294 292 292 289 290 291 295 301 302 299 265 277 283 287 284 281 280 283 287
311 310 298 301 306 307 307 304 302 302 300 296 291 296 298 294 296 296 297 297 295 294 295 297 294 293 296 307 308 302 295 285 288 291 293 286 275 279
318 313 297 303 305 305 302 300 297 298 300 305 299 297 296 297 295 294 293 302 305 300 296 299 300 301 301 291 293 303 305 305 296 295 296 295 296 297
318 310 310 303 303 300 300 298 297 299 302 299 297 296 296 294 293 296 297 298 296 293 293 293 306 308 305 302 300 300 305 309 309 301 296 290 289 296
303 310 309 299 295 295 295 295 295 296 296 296 295 295 297 299 297 293 292 292 292 295 317 313 315 317 310 311 310 305 308 312 314 318 311 307 303 303